Location: Chamerau
(49.1969°N, 12.7525°E)
Time: 15:07:37
(UTC+00:00)

Cosmos 2227 Rocket - Pass Details

Date: 18 September 2020
Orbit: 840 x 844 km, 71.0° (Epoch: 23 October)

Event Time Altitude Azimuth Distance (km) Brightness Sun altitude
Rises 23:35:09 0° 335° (NNW) 3,406 6.0 -38.9°
Reaches altitude 10° 23:38:11 10° 350° (N) 2,468 5.2 -38.8°
Maximum altitude 23:42:32 22° 41° (NE) 1,760 4.3 -38.7°
Enters shadow 23:43:05 22° 49° (NE) 1,773 4.2 -38.7°
